Location: Assche-ter-Heiden
(50.9174°N, 4.1574°E)
Time: 02:28:37
(UTC+00:00)

Cosmos 2369 - Pass Details

Date: 20 January 2020
Orbit: 839 x 856 km, 71.0° (Epoch: 22 February)

Event Time Altitude Azimuth Distance (km) Brightness Sun altitude
Exits shadow 06:10:46 - 246° (WSW) 2,551 5.7 -13.0°
Reaches altitude 10° 06:10:57 10° 247° (WSW) 2,487 5.7 -13.0°
Maximum altitude 06:16:11 36° 313° (NW) 1,340 4.3 -12.2°
Drops below altitude 10° 06:21:27 10° 19° (NNE) 2,500 6.2 -11.4°
Sets 06:24:08 0° 29° (NNE) 3,439 7.0 -11.0°
